Escanaba, MI

2:43 PM EDT on June 28, 2017 (GMT -0400)
Delta County

Weather History for KESC - February, 2012

Change the Weather History Date:

Friday, February 10, 2012

  Actual Average Record
Temperature  
Mean Temperature 20 °F -  
Max Temperature 28 °F 26 °F 48 °F (2009)
Min Temperature 12 °F 7 °F -14 °F (1982)
Degree Days  
Heating Degree Days 45    
Moisture  
Dew Point 4 °F    
Average Humidity 56    
Maximum Humidity 69    
Minimum Humidity 45    
Precipitation  
Precipitation 0.00 in - - ()
Sea Level Pressure  
Sea Level Pressure 30.06 in    
Wind  
Wind Speed 12 mph (North)    
Max Wind Speed 20 mph    
Max Gust Speed 29 mph    
Visibility 8 miles    
Events      
Averages and records for this station are not official NWS values.
T = Trace of Precipitation, MM = Missing Value Source: NWS Daily Summary

Daily Weather History Graph

Daily Weather History Graph

Search for Another Location

Airport or City:

Trip Planner

Search our weather history database for the weather conditions in past years. The results will help you decide how hot, cold, wet, or windy it might be!

Date:

Astronomy

Feb. 10, 2012 Rise Set
Actual Time 7:58 AM EST 6:07 PM EST
Civil Twilight 7:27 AM EST 6:38 PM EST
Nautical Twilight 6:52 AM EST 7:13 PM EST
Astronomical Twilight 6:18 AM EST 7:47 PM EST
Moon 10:00 PM EST (2/10) 8:54 AM EST (2/10)
Length of Visible Light 11h 10m
Length of Day
10h 08m
Waning Gibbous, 90% of the Moon is Illuminated
Feb 10
Waning Gibbous
Feb 14
Last Quarter
Feb 21
New
Feb 29
First Quarter
Mar 8
Full

Hourly Weather History & Observations

Time (EST) Temp. Windchill Dew Point Humidity Pressure Visibility Wind Dir Wind Speed Gust Speed Precip Events Conditions
12:15 AM 26.6 °F 18.2 °F 8.6 °F 47% 29.87 in 10.0 mi WSW 8.1 mph - N/A   Clear
12:35 AM 26.6 °F 16.2 °F 8.6 °F 47% 29.87 in 10.0 mi West 11.5 mph - N/A   Clear
12:55 AM 26.6 °F 16.8 °F 8.6 °F 47% 29.87 in 10.0 mi West 10.4 mph - N/A   Partly Cloudy
1:15 AM 26.6 °F 17.5 °F 10.4 °F 51% 29.87 in 10.0 mi West 9.2 mph - N/A   Partly Cloudy
1:35 AM 26.6 °F 16.8 °F 10.4 °F 51% 29.87 in 10.0 mi West 10.4 mph - N/A   Scattered Clouds
1:55 AM 26.6 °F 16.8 °F 10.4 °F 51% 29.87 in 10.0 mi West 10.4 mph - N/A   Mostly Cloudy
2:15 AM 26.6 °F 17.5 °F 12.2 °F 55% 29.87 in 10.0 mi West 9.2 mph - N/A   Mostly Cloudy
2:35 AM 26.6 °F 17.5 °F 12.2 °F 55% 29.89 in 10.0 mi NW 9.2 mph - N/A   Overcast
2:55 AM 28.4 °F 20.4 °F 14.0 °F 55% 29.89 in 8.0 mi NNW 8.1 mph - N/A   Overcast
3:15 AM 26.6 °F 16.2 °F 17.6 °F 69% 29.90 in 9.0 mi North 11.5 mph 17.3 mph N/A   Overcast
3:35 AM 26.6 °F 16.8 °F 15.8 °F 64% 29.90 in 7.0 mi North 10.4 mph - N/A   Overcast
3:55 AM 24.8 °F 14.6 °F 12.2 °F 59% 29.91 in 10.0 mi North 10.4 mph 21.9 mph N/A   Overcast
4:15 AM 24.8 °F 14.0 °F 12.2 °F 59% 29.92 in 10.0 mi North 11.5 mph 23.0 mph N/A   Overcast
4:35 AM 23.0 °F 10.6 °F 10.4 °F 59% 29.92 in 10.0 mi NNE 13.8 mph 24.2 mph N/A   Overcast
4:55 AM 21.2 °F 8.9 °F 10.4 °F 63% 29.93 in 9.0 mi NNE 12.7 mph 25.3 mph N/A   Overcast
5:15 AM 21.2 °F 8.9 °F 8.6 °F 58% 29.94 in 6.0 mi NNE 12.7 mph 24.2 mph N/A   Overcast
5:35 AM 19.4 °F 8.6 °F 8.6 °F 63% 29.96 in 10.0 mi North 9.2 mph 23.0 mph N/A   Overcast
5:55 AM 19.4 °F 5.5 °F 6.8 °F 58% 29.97 in 10.0 mi NNE 15.0 mph 19.6 mph N/A   Overcast
6:15 AM 19.4 °F 7.9 °F 6.8 °F 58% 29.97 in 7.0 mi NNE 10.4 mph 19.6 mph N/A   Overcast
6:35 AM 17.6 °F 5.7 °F 6.8 °F 63% 29.98 in 5.0 mi North 10.4 mph 20.7 mph N/A   Overcast
6:55 AM 17.6 °F 3.2 °F 6.8 °F 63% 29.99 in 3.0 mi NNE 15.0 mph 24.2 mph N/A   Overcast
7:15 AM 17.6 °F 3.2 °F 6.8 °F 63% 30.01 in 3.0 mi NNE 15.0 mph 24.2 mph N/A   Overcast
7:35 AM 15.8 °F -0.2 °F 3.2 °F 58% 30.02 in 7.0 mi North 17.3 mph 26.5 mph N/A   Overcast
7:55 AM 15.8 °F 1.4 °F 5.0 °F 62% 30.03 in 3.0 mi NNE 13.8 mph 20.7 mph N/A   Overcast
8:15 AM 15.8 °F 6.1 °F 5.0 °F 62% 30.03 in 1.5 mi NNE 6.9 mph 20.7 mph N/A   Overcast
8:35 AM 15.8 °F 2.1 °F 6.8 °F 68% 30.04 in 1.0 mi North 12.7 mph 19.6 mph N/A   Overcast
8:55 AM 15.8 °F 4.2 °F 6.8 °F 68% 30.04 in 0.8 mi NNE 9.2 mph 19.6 mph N/A   Overcast
9:15 AM 15.8 °F 2.1 °F 3.2 °F 58% 30.05 in 2.5 mi North 12.7 mph 19.6 mph N/A   Overcast
9:35 AM 15.8 °F -0.6 °F 3.2 °F 58% 30.06 in 2.0 mi North 18.4 mph 26.5 mph N/A   Overcast
9:55 AM 14.0 °F -3.0 °F 1.4 °F 57% 30.07 in 8.0 mi North 18.4 mph 24.2 mph N/A   Mostly Cloudy
10:15 AM 14.0 °F 0.5 °F 1.4 °F 57% 30.08 in 5.0 mi North 11.5 mph 28.8 mph N/A   Mostly Cloudy
10:35 AM 14.0 °F -0.8 °F -0.4 °F 53% 30.08 in 10.0 mi North 13.8 mph 28.8 mph N/A   Overcast
10:55 AM 14.0 °F -3.0 °F -0.4 °F 53% 30.09 in 10.0 mi North 18.4 mph 28.8 mph N/A   Overcast
11:15 AM 14.0 °F -2.5 °F -0.4 °F 53% 30.10 in 9.0 mi North 17.3 mph 25.3 mph N/A   Overcast
11:35 AM 12.2 °F -1.8 °F 1.4 °F 62% 30.11 in 8.0 mi North 11.5 mph 20.7 mph N/A   Overcast
11:55 AM 12.2 °F -4.3 °F -0.4 °F 57% 30.12 in 10.0 mi North 16.1 mph 24.2 mph N/A   Overcast
12:15 PM 12.2 °F -4.3 °F -0.4 °F 57% 30.13 in 9.0 mi North 16.1 mph 24.2 mph N/A   Overcast
12:35 PM 12.2 °F -4.8 °F -2.2 °F 53% 30.13 in 10.0 mi NNE 17.3 mph 25.3 mph N/A   Overcast
12:55 PM 12.2 °F -3.7 °F -0.4 °F 57% 30.13 in 10.0 mi NNE 15.0 mph 21.9 mph N/A   Overcast
1:15 PM 14.0 °F 1.2 °F -0.4 °F 53% 30.12 in 10.0 mi North 10.4 mph 18.4 mph N/A   Overcast
1:35 PM 14.0 °F -3.4 °F -2.2 °F 49% 30.12 in 10.0 mi NNE 19.6 mph 25.3 mph N/A   Mostly Cloudy
1:55 PM 14.0 °F -1.4 °F -2.2 °F 49% 30.12 in 10.0 mi North 15.0 mph 20.7 mph N/A   Mostly Cloudy
2:15 PM 15.8 °F 0.3 °F -0.4 °F 49% 30.12 in 10.0 mi North 16.1 mph 26.5 mph N/A   Overcast
2:35 PM 15.8 °F 0.3 °F -0.4 °F 49% 30.12 in 10.0 mi NNW 16.1 mph 23.0 mph N/A   Overcast
2:55 PM 15.8 °F 0.3 °F -2.2 °F 45% 30.13 in 10.0 mi North 16.1 mph 24.2 mph N/A   Overcast
3:15 PM 15.8 °F 3.4 °F -2.2 °F 45% 30.14 in 10.0 mi North 10.4 mph 23.0 mph N/A   Overcast
3:35 PM 15.8 °F 2.7 °F -0.4 °F 49% 30.14 in 10.0 mi North 11.5 mph 23.0 mph N/A   Overcast
3:55 PM 15.8 °F 2.7 °F -0.4 °F 49% 30.14 in 10.0 mi North 11.5 mph 16.1 mph N/A   Overcast
4:15 PM 15.8 °F 0.9 °F 1.4 °F 53% 30.14 in 10.0 mi North 15.0 mph 21.9 mph N/A   Overcast
4:35 PM 15.8 °F 2.1 °F 1.4 °F 53% 30.15 in 7.0 mi North 12.7 mph 21.9 mph N/A   Overcast
4:55 PM 15.8 °F 2.7 °F -0.4 °F 49% 30.16 in 10.0 mi NNW 11.5 mph 25.3 mph N/A   Overcast
5:15 PM 14.0 °F 2.0 °F 1.4 °F 57% 30.16 in 10.0 mi NNW 9.2 mph 20.7 mph N/A   Overcast
5:35 PM 14.0 °F -0.8 °F 1.4 °F 57% 30.16 in 10.0 mi NNW 13.8 mph 19.6 mph N/A   Overcast
5:55 PM 14.0 °F -0.2 °F -0.4 °F 53% 30.16 in 10.0 mi NNW 12.7 mph 21.9 mph N/A   Overcast
6:15 PM 12.2 °F -2.5 °F -0.4 °F 57% 30.17 in 10.0 mi NNW 12.7 mph 21.9 mph N/A   Overcast
6:35 PM 12.2 °F -1.8 °F -0.4 °F 57% 30.18 in 10.0 mi NNW 11.5 mph 20.7 mph N/A   Overcast
6:55 PM 12.2 °F -2.5 °F -0.4 °F 57% 30.18 in 10.0 mi NNW 12.7 mph 19.6 mph N/A   Overcast
7:15 PM 12.2 °F -1.8 °F -0.4 °F 57% 30.19 in 10.0 mi NNW 11.5 mph 20.7 mph N/A   Overcast
7:35 PM 12.2 °F -1.0 °F -2.2 °F 53% 30.19 in 10.0 mi NNW 10.4 mph 19.6 mph N/A   Overcast
7:55 PM 12.2 °F -1.8 °F -2.2 °F 53% 30.19 in 10.0 mi NW 11.5 mph 21.9 mph N/A   Overcast
8:15 PM 12.2 °F -4.3 °F -2.2 °F 53% 30.19 in 10.0 mi NNW 16.1 mph 20.7 mph N/A   Overcast
8:35 PM 12.2 °F -2.5 °F -2.2 °F 53% 30.19 in 10.0 mi NW 12.7 mph 20.7 mph N/A   Overcast
8:55 PM 12.2 °F -2.5 °F -2.2 °F 53% 30.20 in 10.0 mi NW 12.7 mph 20.7 mph N/A   Overcast
9:15 PM 12.2 °F -0.2 °F -0.4 °F 57% 30.20 in 10.0 mi NW 9.2 mph - N/A   Overcast
9:35 PM 12.2 °F -1.8 °F -0.4 °F 57% 30.19 in 10.0 mi NNW 11.5 mph 18.4 mph N/A   Overcast
9:55 PM 12.2 °F -1.0 °F -2.2 °F 53% 30.19 in 10.0 mi NW 10.4 mph 23.0 mph N/A   Overcast
10:15 PM 12.2 °F -1.8 °F -2.2 °F 53% 30.19 in 10.0 mi NW 11.5 mph 17.3 mph N/A   Overcast
10:35 PM 12.2 °F -1.0 °F -2.2 °F 53% 30.19 in 10.0 mi NW 10.4 mph - N/A   Overcast
10:55 PM 12.2 °F -1.8 °F -2.2 °F 53% 30.19 in 10.0 mi NW 11.5 mph 16.1 mph N/A   Overcast
11:15 PM 12.2 °F -0.2 °F -2.2 °F 53% 30.20 in 10.0 mi NW 9.2 mph - N/A   Overcast
11:35 PM 12.2 °F -1.0 °F -0.4 °F 57% 30.20 in 10.0 mi NW 10.4 mph - N/A   Overcast
11:55 PM 12.2 °F -1.0 °F -0.4 °F 57% 30.19 in 10.0 mi NW 10.4 mph - N/A   Overcast